Regional Weather Roundup
Issued by NWS Sterling, VA

Home | Current Version | Previous Version | Text Only | Print | Product List | Glossary On
Versions: 1 2 3 4 5 6 7 8 9 10 11 12 13 14 15 16 17 18 19 20 21 22 23 24 25 26 27 28 29 30 31 32 33 34 35 36 37 38 39 40 41 42 43 44 45 46 47 48 49 50
958
ASUS41 KLWX 160811
RWRLWX

REGIONAL WEATHER ROUNDUP
NATIONAL WEATHER SERVICE BALTIMORE MD/WASHINGTON DC
300 AM EST SAT DEC 16 2017

Note: "FAIR" indicates few or no clouds below 12,000 feet
with no significant weather and/or obstructions to visibility.
 TC=TEMPERATURE CELSIUS

 * =Non NWS site. Station does not report precipitation (e.g. rain,
    snow, etc.), thunder, or fog.

DCZ001-MDZ009-015-VAZ040>042-051-053>054-160900-
WASHINGTON METRO

CITY           SKY/WX    TMP DP  RH WIND       PRES   REMARKS
WASHINGTON NAT CLOUDY    28  23  81 SW7       30.09R
DULLES         CLOUDY    27  23  85 W5        30.07R
ANDREWS AFB    CLOUDY    24  22  90 SW5       30.06R
FT BELVOIR     CLOUDY    22  20  91 CALM      30.09R
QUANTICO       CLEAR     23  21  92 W6        30.11R
COLLEGE PARK*  CLOUDY    26  24  91 CALM      30.07R
LEESBURG*      CLOUDY    34  25  69 NW16G23   30.06R WCI  23
MANASSAS*      CLOUDY    19  17  92 S3        30.09R
GAITHERSBURG*  CLOUDY    27  21  78 CALM      30.05R

$$

MDZ006>007-011-014-160900-
BALTIMORE METRO

CITY           SKY/WX    TMP DP  RH WIND       PRES   REMARKS
BWI AIRPORT    CLOUDY    25  24  96 SW3       30.06R
MD SCIENCE CTR   N/A     27  22  81 MISG      30.05R
MARTIN STATE   CLEAR     21  21 100 CALM      30.07R FOG
ANNAPOLIS      CLOUDY    27  25  92 VRB3      30.08R
FORT MEADE*    CLOUDY    23  21  93 SW5       30.08R

$$

MDZ012-015-019>023-160900-
MARYLAND EASTERN SHORE

CITY           SKY/WX    TMP DP  RH WIND       PRES   REMARKS
OCEAN CITY     CLEAR     25  25 100 W5        30.08R FOG
SALISBURY      CLEAR     23  23 100 SW3       30.08R FOG
BAY BRIDGE AP* CLOUDY    30  23  74 MISG      30.07R
CAMBRIDGE*       N/A     25  25 100 SW5       30.08R
EASTON*        CLEAR     28  25  90 CALM      30.10R

$$

MDZ017>025-160900-
SOUTHERN MARYLAND

CITY           SKY/WX    TMP DP  RH WIND       PRES   REMARKS
PATUXENT RIVER CLEAR     28  24  85 SW7       30.08R
ST INIGOES     CLEAR     31  23  72 W7        30.09R
LEONARDTOWN*   CLEAR     27  23  86 SW3       30.10R

$$

MDZ003>005-160900-
NORTH CENTRAL MARYLAND

CITY           SKY/WX    TMP DP  RH WIND       PRES   REMARKS
FREDERICK*     CLOUDY    34  14  44 W15G21    30.08R WCI  24
HAGERSTOWN APT CLOUDY    32  15  49 W12       30.03R WCI  23
WESTMINSTER*   CLOUDY    30  21  69 NW16G24   30.02R WCI  19

$$

MDZ501>502-160900-
WESTERN MARYLAND

CITY           SKY/WX    TMP DP  RH WIND       PRES   REMARKS
OAKLAND*       CLOUDY    19  14  79 W14G24    29.89R WCI   6
CUMBERLAND*    CLOUDY    32  18  55 CALM      30.07R

$$

VAZ025>031-160900-
SHENANDOAH VALLEY

CITY           SKY/WX    TMP DP  RH WIND       PRES   REMARKS
WINCHESTER*    CLOUDY    32  18  55 NW20G25   30.04R WCI  20
FRONT ROYAL*   CLOUDY    34  18  51 W10       30.04R WCI  26
LURAY*         CLOUDY    32  19  59 S6        30.05R
NEW MARKET*    CLOUDY    29  16  58 W6        30.05R
STAUNTON*      CLOUDY    25  15  65 CALM      30.07R
WAYNESBORO*    CLEAR     29  16  58 W7        30.04R

$$

WVZ021-048>050-054>055-160900-
EASTERN WEST VIRGINIA PANHANDLE

CITY           SKY/WX    TMP DP  RH WIND       PRES   REMARKS
MARTINSBURG    CLOUDY    32  14  47 W13       30.03R WCI  22
PETERSBURG*    CLOUDY    32  17  52 W21G31    30.04S WCI  20

$$

VAZ036>039-050-160900-
CENTRAL FOOTHILLS

CITY           SKY/WX    TMP DP  RH WIND       PRES   REMARKS
CHARLOTTESVILL CLEAR     28  16  60 S6        30.07R
CULPEPER*      FAIR      15  12  86 CALM      30.10R
ORANGE*        PTCLDY    18  14  86 CALM      30.09R
GORDONSVILLE*  CLEAR     17  15  94 CALM      30.08R
WARRENTON*     PTCLDY    17  13  83 CALM      30.08R

$$

VAZ055>057-160900-
NORTH AND CENTRAL PIEDMONT

CITY           SKY/WX    TMP DP  RH WIND       PRES   REMARKS
FREDERICKSBRG* CLEAR     19  19  97 SW3       30.10R
STAFFORD*      CLEAR     20  20 100 CALM      30.14R

$$

NCZ024-NYZ072-PAZ021-071-VAZ022-071-160900-
OTHER REGIONAL OBSERVATIONS

CITY           SKY/WX    TMP DP  RH WIND       PRES   REMARKS
NEW YORK CITY  CLEAR     24  17  74 W9G21     29.96R WCI  14
PHILADELPHIA   PTCLDY    26  18  71 W13       30.04R WCI  15
PITTSBURGH     CLOUDY    30  18  60 SW14G22   29.99S WCI  19
ROANOKE        CLOUDY    34  18  52 W13G24    30.11R WCI  25
RICHMOND       CLEAR     34  20  56 W6        30.12R
RALEIGH        PTCLDY    29  21  72 CALM      30.16R

$$

ANZ530>537-160900-
MARINE OBSERVATIONS

STATION/POSITION TIME  TEMP    WIND        PRES
                       AIR SEA DIR/SP/G
                 (UTC) (F)     (DEG/KT/KT) (MB)
THOMAS PT LIGHT  0800   29 42  260/ 10/ 11   N/A
BALT KEY BRIDGE  0736   28     220/ 10/ 12 1017.8R
COVE POINT       0736   32     270/  9/ 12 1019.1R
LEWISETTA        0742   29 38  250/  8/  9 1019.1R
SOLOMONS ISLAND  0736   32 45  240/ 10/ 11 1018.4R
PINEY POINT      0742          280/  7/  9   N/A

$$





USA.gov is the U.S. government's official web portal to all federal, state and local government web resources and services.